This is the latest recevied weather packets stored in our database for station/object N3FAA. If no packets are shown the sender has not sent any weather packets the latest 10 day(s).
| Time | Temp. | Humidity | Pressure | Rain* | Wind** | Luminosity | Snow |
|---|---|---|---|---|---|---|---|
| 1777792586 | 15.56° C | 60% | 1009.8 hPa | 0 mm | - | 0 W/m² | - |
| 1777792282 | 15.56° C | 59% | 1009.6 hPa | 0 mm | - | 0 W/m² | - |
| 1777791980 | 16.11° C | 58% | 1009.6 hPa | 0 mm | - | 0 W/m² | - |
| 1777791678 | 16.11° C | 57% | 1010.1 hPa | 0 mm | - | 0 W/m² | - |
| 1777791374 | 15.56° C | 56% | 1009.6 hPa | 0 mm | - | 0 W/m² | - |
| 1777791072 | 16.11° C | 54% | 1009.6 hPa | 0 mm | - | 0 W/m² | - |
| 1777790769 | 16.67° C | 52% | 1009.8 hPa | 0 mm | - | 0 W/m² | - |
| 1777790466 | 16.67° C | 50% | 1009.9 hPa | 0 mm | - | 0 W/m² | - |
| 1777790163 | 16.67° C | 50% | 1009.9 hPa | 0 mm | - | 0 W/m² | - |
| 1777789862 | 16.67° C | 49% | 1009.6 hPa | 0 mm | - | 0 W/m² | - |
| 1777789560 | 16.67° C | 47% | 1009.9 hPa | 0 mm | - | 0 W/m² | - |
| 1777789258 | 17.22° C | 46% | 1009.8 hPa | 0 mm | - | 0 W/m² | - |
| 1777788954 | 17.22° C | 44% | 1009.6 hPa | 0 mm | - | 0 W/m² | - |
| 1777788651 | 17.22° C | 43% | 1009.8 hPa | 0 mm | - | 0 W/m² | - |
| 1777788350 | 17.22° C | 43% | 1009.5 hPa | 0 mm | - | 0 W/m² | - |
| 1777788047 | 17.22° C | 42% | 1009.8 hPa | 0 mm | - | 0 W/m² | - |
| 1777787742 | 17.22° C | 42% | 1009.6 hPa | 0 mm | - | 0 W/m² | - |
| 1777787438 | 17.22° C | 43% | 1009.8 hPa | 0 mm | - | 0 W/m² | - |
| 1777787134 | 17.22° C | 44% | 1009.6 hPa | 0 mm | - | 0 W/m² | - |
| 1777786831 | 17.22° C | 46% | 1009.5 hPa | 0 mm | - | 0 W/m² | - |
| 1777786529 | 16.67° C | 47% | 1009.5 hPa | 0 mm | - | 0 W/m² | - |
| 1777786227 | 17.22° C | 48% | 1009.6 hPa | 0 mm | - | 0 W/m² | - |
| 1777785923 | 16.67° C | 48% | 1009.6 hPa | 0 mm | - | 0 W/m² | - |
| 1777785620 | 16.67° C | 51% | 1009.4 hPa | 0 mm | - | 0 W/m² | - |
| 1777785315 | 17.22° C | 52% | 1009.6 hPa | 0 mm | - | 0 W/m² | - |
* Rain latest hour (hover to see other rain measurements)
** Current wind speed in m/s (hover to see current wind gust speed)